Regional Weather Roundup
Issued by NWS

Home | Current Version | Previous Version | Graphics & Text | Print | Product List | Glossary On
Versions: 1 2 3 4 5 6 7 8 9 10 11 12 13 14 15 16 17 18 19 20 21 22 23 24 25 26 27
000
ASUS45 KCYS 162110
RWRWY

WYOMING REGIONAL WEATHER ROUNDUP
NATIONAL WEATHER SERVICE CHEYENNE WY
300 PM MDT MON OCT 16 2017

NOTE:  "FAIR" INDICATES FEW OR NO CLOUDS BELOW 12,000 FEET
WITH NO SIGNIFICANT WEATHER AND/OR OBSTRUCTIONS TO VISIBILITY.

WYZ001-162200-
YELLOWSTONE NATIONAL PARK

CITY           SKY/WX    TMP DP  RH WIND       PRES   REMARKS
LK YELLOWSTONE   N/A     51  16  24 CALM      30.41F
W YELLOWSTONE  NOT AVBL

$$
WYZ002>013-054>058-071-098>099-162200-
NORTHERN WYOMING

CITY           SKY/WX    TMP DP  RH WIND       PRES   REMARKS
JACKSON        FAIR      54  24  31 CALM      30.38F
CODY           FAIR      69  17  13 E10       30.19F
GREYBULL       FAIR      67  21  17 VRB5      30.16F
WORLAND        FAIR      65  31  28 VRB3      30.18F
SHERIDAN       FAIR      74  23  15 N18G24    30.10F
BUFFALO        FAIR      70  17  13 SE8       30.17F
GILLETTE       FAIR      70  21  15 NW14G25   30.13F
HULETT         FAIR      68  27  21 W14G20    30.13S
NEWCASTLE      FAIR      68  21  17 NW14G21   30.14F

$$
WYZ014>020-022>026-101>103-162200-
CENTRAL WYOMING

CITY           SKY/WX    TMP DP  RH WIND       PRES   REMARKS
BIG PINEY      FAIR      60   8  12 VRB3      30.37F
PINEDALE       FAIR      61  10  13 CALM      30.37F
DUBOIS         FAIR      59   9  13 NW15G25   30.32S
LANDER         FAIR      65  17  15 CALM      30.23F
RIVERTON       FAIR      59  28  30 NE6       30.24F
CASPER         FAIR      68  14  12 W17       30.21F
DOUGLAS        FAIR      69  15  12 NW17G28   30.19F

$$
WYZ021-027>030-104>119-162200-
SOUTHERN WYOMING

CITY           SKY/WX    TMP DP  RH WIND       PRES   REMARKS
EVANSTON       FAIR      65   6  10 W15G24    30.40F
KEMMERER       FAIR      61   7  11 W18G24    30.40F
FORT BRIDGER   FAIR      68   3   8 W16       30.41F
ROCK SPRINGS   FAIR      63  -2   7 W17G25    30.36F
DIXON          FAIR      66   5   9 SW8       30.39F
RAWLINS        FAIR      63   2   8 SW20G29   30.32F
SARATOGA       FAIR      64   3   9 W18G33    30.36S
LARAMIE        FAIR      66  -4   6 W18G25    30.31F
CHEYENNE       FAIR      73   6   7 W17G29    30.23F
TORRINGTON     FAIR      77  10   7 NW13      30.12F
PINE BLUFFS    FAIR      77  10   8 W14G22    30.18F

$$




USA.gov is the U.S. government's official web portal to all federal, state and local government web resources and services.